Weather History for Bar Harbor, ME

Change the Weather History Date:

Friday, October 5, 2012

  Actual Average Record
Temperature  
Mean Temperature 56 °F -  
Max Temperature 60 °F 60 °F 71 °F (2001)
Min Temperature 53 °F 42 °F 30 °F (1996)
Degree Days  
Heating Degree Days 8    
Growing Degree Days 6 (Base 50)    
Moisture  
Dew Point 56 °F    
Average Humidity 97    
Maximum Humidity 100    
Minimum Humidity 88    
Precipitation  
Precipitation 0.04 in - - ()
Sea Level Pressure  
Sea Level Pressure 29.97 in    
Wind  
Wind Speed 3 mph (South)    
Max Wind Speed 14 mph    
Max Gust Speed -    
Visibility 7 miles    
Events      
Averages and records for this station are not official NWS values.
T = Trace of Precipitation, MM = Missing Value Source: NWS Daily Summary

Daily Weather History Graph

Daily Weather History Graph

Search for Another Location

Airport:

Trip Planner

Search our weather history database for the weather conditions in past years. The results will help you decide how hot, cold, wet, or windy it might be!

Date:

Astronomy

Oct. 05, 2012 Rise Set
Actual Time 6:36 AM EDT 6:05 PM EDT
Civil Twilight 6:07 AM EDT 6:34 PM EDT
Nautical Twilight 5:33 AM EDT 7:08 PM EDT
Astronomical Twilight 4:59 AM EDT 7:42 PM EDT
Moon 9:15 PM EDT (10/5) 11:52 AM EDT (10/5)
Length of Visible Light 12h 27m
Length of Day
11h 29m
Waning Gibbous, 74% of the Moon is Illuminated
Oct 5
Waning Gibbous
Oct 8
Last Quarter
Oct 15
New
Oct 21
First Quarter
Oct 29
Full

Hourly Weather History & Observations

Time (EDT) Temp. Dew Point Humidity Pressure Visibility Wind Dir Wind Speed Gust Speed Precip Events Conditions
12:15 AM 53.6 °F 51.8 °F 94% 30.04 in 10.0 mi Calm Calm - 0.01 in   Overcast
12:35 AM 53.6 °F 51.8 °F 94% 30.03 in 10.0 mi Calm Calm - 0.02 in   Overcast
12:55 AM 53.6 °F 51.8 °F 94% 30.02 in 10.0 mi East 3.5 mph - 0.02 in   Overcast
1:15 AM 53.6 °F 51.8 °F 94% 30.03 in 10.0 mi East 3.5 mph - N/A   Overcast
1:35 AM 53.6 °F 51.8 °F 94% 30.02 in 6.0 mi Calm Calm - N/A   Overcast
1:55 AM 53.6 °F 53.6 °F 100% 30.02 in 6.0 mi Calm Calm - 0.01 in   Overcast
2:15 AM 53.6 °F 53.6 °F 100% 30.02 in 3.0 mi Calm Calm - N/A   Overcast
2:35 AM 53.6 °F 53.6 °F 100% 30.01 in 3.0 mi Calm Calm - N/A   Overcast
2:55 AM 53.6 °F 53.6 °F 100% 30.01 in 3.0 mi Calm Calm - N/A   Overcast
3:15 AM 53.6 °F 53.6 °F 100% 30.00 in 5.0 mi ESE 3.5 mph - N/A   Overcast
3:35 AM 53.6 °F 53.6 °F 100% 30.00 in 5.0 mi Calm Calm - 0.01 in   Overcast
3:55 AM 53.6 °F 53.6 °F 100% 30.01 in 9.0 mi Calm Calm - 0.01 in   Overcast
4:15 AM 53.6 °F 53.6 °F 100% 30.01 in 10.0 mi Calm Calm - N/A   Overcast
4:35 AM 53.6 °F 53.6 °F 100% 30.00 in 10.0 mi SE 3.5 mph - N/A   Overcast
4:55 AM 53.6 °F 51.8 °F 94% 30.00 in 10.0 mi Calm Calm - N/A   Overcast
5:15 AM 53.6 °F 53.6 °F 100% 30.00 in 10.0 mi Calm Calm - N/A   Overcast
5:35 AM 53.6 °F 53.6 °F 100% 29.99 in 8.0 mi Calm Calm - N/A   Overcast
5:55 AM 53.6 °F 51.8 °F 94% 29.99 in 3.0 mi Calm Calm - N/A   Overcast
6:15 AM 53.6 °F 51.8 °F 94% 30.00 in 2.0 mi Calm Calm - N/A   Overcast
6:35 AM 53.6 °F 53.6 °F 100% 30.00 in 1.2 mi Calm Calm - N/A   Overcast
6:55 AM 53.6 °F 53.6 °F 100% 30.00 in 0.8 mi Calm Calm - N/A   Overcast
7:15 AM 53.6 °F 53.6 °F 100% 30.00 in 0.8 mi Calm Calm - N/A   Overcast
7:35 AM 53.6 °F 53.6 °F 100% 30.01 in 1.0 mi Calm Calm - N/A   Overcast
7:55 AM 53.6 °F 53.6 °F 100% 30.00 in 1.0 mi Calm Calm - N/A   Overcast
8:15 AM 55.4 °F 55.4 °F 100% 30.00 in 1.2 mi SSW 3.5 mph - N/A   Overcast
8:35 AM 55.4 °F 55.4 °F 100% 29.99 in 2.5 mi SSW 3.5 mph - N/A   Overcast
8:55 AM 55.4 °F 53.6 °F 94% 29.99 in 2.0 mi SSW 4.6 mph - N/A   Overcast
9:15 AM 55.4 °F 55.4 °F 100% 29.99 in 9.0 mi Calm Calm - N/A   Overcast
9:35 AM 55.4 °F 55.4 °F 100% 29.98 in 10.0 mi SSW 3.5 mph - N/A   Overcast
9:55 AM 57.2 °F 55.4 °F 94% 29.98 in 10.0 mi South 4.6 mph - N/A   Overcast
10:15 AM 57.2 °F 57.2 °F 100% 29.98 in 10.0 mi SSW 5.8 mph - N/A   Overcast
10:35 AM 57.2 °F 57.2 °F 100% 29.98 in 10.0 mi SSW 4.6 mph - N/A   Overcast
10:55 AM 57.2 °F 55.4 °F 94% 29.97 in 10.0 mi SW 4.6 mph - N/A   Overcast
11:15 AM 57.2 °F 57.2 °F 100% 29.97 in 10.0 mi South 5.8 mph - N/A   Overcast
11:35 AM 57.2 °F 57.2 °F 100% 29.96 in 10.0 mi SSW 6.9 mph - N/A   Overcast
11:55 AM 59.0 °F 57.2 °F 94% 29.96 in 10.0 mi SSW 6.9 mph - N/A   Overcast
12:15 PM 59.0 °F 57.2 °F 94% 29.96 in 10.0 mi SSW 5.8 mph - N/A   Overcast
12:35 PM 59.0 °F 57.2 °F 94% 29.96 in 10.0 mi SSW 6.9 mph - N/A   Overcast
12:55 PM 59.0 °F 57.2 °F 94% 29.95 in 10.0 mi SSW 9.2 mph - N/A   Overcast
1:15 PM 59.0 °F 57.2 °F 94% 29.96 in 10.0 mi SSW 5.8 mph - N/A   Overcast
1:35 PM 59.0 °F 57.2 °F 94% 29.95 in 10.0 mi SW 4.6 mph - N/A   Overcast
1:55 PM 60.8 °F 57.2 °F 88% 29.95 in 10.0 mi SW 5.8 mph - N/A   Overcast
2:35 PM 60.8 °F 57.2 °F 88% 29.94 in 10.0 mi South 9.2 mph - N/A   Overcast
2:55 PM 60.8 °F 59.0 °F 94% 29.93 in 10.0 mi SSW 8.1 mph - N/A   Overcast
3:15 PM 60.8 °F 57.2 °F 88% 29.94 in 10.0 mi South 9.2 mph - N/A   Overcast
3:35 PM 60.8 °F 57.2 °F 88% 29.93 in 10.0 mi South 9.2 mph - N/A   Overcast
3:55 PM 60.8 °F 57.2 °F 88% 29.93 in 10.0 mi South 10.4 mph - N/A   Overcast
4:15 PM 60.8 °F 57.2 °F 88% 29.92 in 10.0 mi South 10.4 mph - N/A   Scattered Clouds
4:35 PM 60.8 °F 57.2 °F 88% 29.91 in 10.0 mi South 6.9 mph - N/A   Partly Cloudy
4:55 PM 60.8 °F 57.2 °F 88% 29.91 in 10.0 mi South 10.4 mph - N/A   Scattered Clouds
5:15 PM 60.8 °F 57.2 °F 88% 29.92 in 10.0 mi South 6.9 mph - N/A   Overcast
5:35 PM 59.0 °F 57.2 °F 94% 29.92 in 10.0 mi SSW 6.9 mph - N/A   Overcast
5:55 PM 57.2 °F 57.2 °F 100% 29.92 in 10.0 mi South 9.2 mph - N/A   Overcast
6:15 PM 57.2 °F 57.2 °F 100% 29.93 in 9.0 mi South 10.4 mph - N/A   Overcast
6:35 PM 57.2 °F 57.2 °F 100% 29.94 in 10.0 mi South 10.4 mph - N/A   Overcast
6:55 PM 57.2 °F 57.2 °F 100% 29.93 in 10.0 mi South 9.2 mph - N/A   Overcast
7:15 PM 57.2 °F 57.2 °F 100% 29.93 in 10.0 mi South 10.4 mph - N/A   Overcast
7:35 PM 57.2 °F 57.2 °F 100% 29.93 in 9.0 mi South 6.9 mph - N/A   Overcast
7:55 PM 57.2 °F 57.2 °F 100% 29.93 in 8.0 mi South 9.2 mph - N/A   Overcast
8:15 PM 57.2 °F 57.2 °F 100% 29.94 in 8.0 mi South 9.2 mph - N/A   Overcast
8:35 PM 57.2 °F 57.2 °F 100% 29.94 in 7.0 mi South 9.2 mph - N/A   Overcast
8:55 PM 57.2 °F 57.2 °F 100% 29.94 in 8.0 mi South 11.5 mph - N/A   Overcast
9:15 PM 57.2 °F 57.2 °F 100% 29.94 in 8.0 mi South 9.2 mph - N/A   Overcast
9:35 PM 57.2 °F 57.2 °F 100% 29.94 in 3.0 mi SSW 11.5 mph - N/A   Overcast
9:55 PM 55.4 °F 55.4 °F 100% 29.94 in 4.0 mi SSW 6.9 mph - N/A   Overcast
10:15 PM 55.4 °F 55.4 °F 100% 29.93 in 2.0 mi South 9.2 mph - N/A   Overcast
10:35 PM 55.4 °F 55.4 °F 100% 29.93 in 3.0 mi South 13.8 mph - N/A   Overcast
10:55 PM 57.2 °F 57.2 °F 100% 29.92 in 1.2 mi South 8.1 mph - N/A   Overcast
11:35 PM 57.2 °F 57.2 °F 100% 29.91 in 0.5 mi South 9.2 mph - N/A   Overcast
11:55 PM 57.2 °F 57.2 °F 100% 29.91 in 0.8 mi South 12.7 mph - N/A   Overcast